Погода в Охотном

Россия / Калининградская область     54°55′37″N   21°37′13″E
темп.,
°C
ветер,
м/с
пор.,
м/с
влажн.,
%
обл.,
%
осадки,
мм/ч
давл.,
гПа
погр.,
м
26 февраля, пт
пт2623:00+7зюз413920 0.0 1021382
02:00+6з616890 0.0 1020511
05:00+5з6148954 0.0 1019510
08:00+4з5148574 0.0 1020552
11:00+5з71381100 0.0 1020648
14:00+6з8148051 0.0 1020833
17:00+4з8148566 0.0 1018767
20:00+3з7148968 0.0 1018467
27 февраля, сб
сб2723:00+3з513890 0.0 1018386
02:00+3зсз410900 0.0 1020302
05:00+3сз5138949 0.0 1021486
08:00+2сз5148824 0.0 1023542
11:00+5ссз712770 0.0 1025671
14:00+5сз712750 0.0 1027622
17:00+4сз611790 0.0 1028537
20:00+1сз511890 0.0 1029328
28 февраля, вс
вс2823:00+1сз38930 0.0 1030240
02:00+1зсз359422 0.0 1031126
05:00+1з369168 0.0 1029135
08:00+3з388476 0.0 1030217
11:00+5зсз597589 0.0 1029382
14:00+6зсз6118282 0.0 1029543
17:00+4зсз5108827 0.0 1029423
20:00+3зсз499119 0.0 1030267
1 марта, пн
пн123:00+2зсз37910 0.0 1030146
02:00+2зсз36890 0.0 1032131
05:00+1зсз35910 0.0 1031102
08:00+1з35940 0.0 1032101
11:00+5з488138 0.0 1032339
14:00+7з587421 0.0 1032390
17:00+5з5107923 0.0 1030435
20:00+4з4148819 0.0 1030396
2 марта, вт
вт223:00+3з5149022 0.0 1030459
02:00+3з6139211 0.0 1029372
05:00+2з511930 0.0 1028316
08:00+2з49930 0.0 1029262
11:00+5зсз47800 0.0 1029391
14:00+6зсз47760 0.0 1029382
17:00+4зсз47830 0.0 1029302
20:00+1зсз24950 0.0 1029104